Regional Weather Roundup
Issued by NWS Little Rock, AR

Home | Current Version | Previous Version | Text Only | Print | Product List | Glossary Off
Versions: 1 2 3 4 5 6 7 8 9 10 11 12 13 14 15 16 17 18 19 20 21 22 23 24 25 26 27 28 29 30 31 32 33 34 35 36 37 38 39 40 41 42 43 44 45 46 47 48 49

000
ASUS44 KLZK 251505
RWRLZK

WEATHER ROUNDUP FOR ARKANSAS
NATIONAL WEATHER SERVICE LITTLE ROCK AR
900 AM CST THU DEC 25 2014

NOTE: "FAIR" INDICATES FEW OR NO CLOUDS BELOW 12,000 FEET WITH NO
SIGNIFICANT WEATHER AND/OR OBSTRUCTIONS TO VISIBILITY.

ARZ001-003-010-029-251600-
NORTHWEST ARKANSAS

CITY           SKY/WX    TMP DP  RH WIND       PRES   REMARKS
FAYETTEVILLE   SUNNY     37  30  75 S8        30.00R
FORT SMITH     SUNNY     33  30  88 NE6       30.05R WCI  28
HARRISON       SUNNY     38  31  76 S12       29.99R
BENTONVILLE    SUNNY     37  28  70 S9        29.98R
ROGERS         SUNNY     39  30  70 S16G23    29.97R
SILOAM SPGS    SUNNY     37  27  65 S14       29.98R
HIGHFILL       SUNNY     37  31  78 S10       29.97R
SPRINGDALE     MOSUNNY   39  30  70 S10       30.00R
$$

ARZ004-005-016-251600-
NORTH CENTRAL ARKANSAS

CITY           SKY/WX    TMP DP  RH WIND       PRES   REMARKS
BATESVILLE     SUNNY     39  30  70 S12       30.11S
FLIPPIN        SUNNY     37  28  70 S6        30.04R
MTN HOME       SUNNY     35  30  82 S7        30.03R WCI  29
$$

ARZ040-041-251600-
WEST CENTRAL ARKANSAS

CITY           SKY/WX    TMP DP  RH WIND       PRES   REMARKS
MENA           MOSUNNY   45  32  61 S3        30.05S
MOUNT IDA      MOSUNNY   34  30  85 CALM      30.06R
$$

ARZ009-017-025-026-028-251600-
NORTHEAST ARKANSAS

CITY           SKY/WX    TMP DP  RH WIND       PRES   REMARKS
CORNING        FAIR      39  34  81 S15       30.14R
JONESBORO      SUNNY     39  34  82 SW13      30.16R
NEWPORT        SUNNY     39  35  85 S14       30.15R
WALNUT RIDGE   SUNNY     39  32  75 S15       30.12R
BLYTHEVILLE    SUNNY     41  36  82 S10       30.17R
$$

ARZ022-023-033-042-044-251600-
CENTRAL ARKANSAS

CITY           SKY/WX    TMP DP  RH WIND       PRES   REMARKS
LITTLE ROCK    MOSUNNY   38  32  79 S8        30.14S
N LITTLE ROCK  MOSUNNY   37  34  87 S9        30.14S
JACKSONVILLE   SUNNY     38  33  81 S7        30.13S
SEARCY         SUNNY     37  35  92 S10       30.15S
HOT SPRINGS    SUNNY     38  33  82 CALM      30.12R
RUSSELLVILLE   MOSUNNY   36  32  85 SE5       30.09R
CLINTON        FAIR      32  28  86 CALM      30.13R FOG
$$

ARZ036-251600-
EAST ARKANSAS

CITY           SKY/WX    TMP DP  RH WIND       PRES   REMARKS
WEST MEMPHIS   SUNNY     41  36  82 S10       30.18R
$$

ARZ050-053-066-070-073-251600-
SOUTHWEST ARKANSAS

CITY           SKY/WX    TMP DP  RH WIND       PRES   REMARKS
ARKADELPHIA    FAIR      34  34 100 CALM      30.16R
CAMDEN         SUNNY     37  32  81 MISG      30.16F
TEXARKANA      SUNNY     41  34  76 S10       30.11S
EL DORADO      SUNNY     38  35  89 S6        30.16S
DE QUEEN       MOSUNNY   33  32  96 E5        30.08S WCI  29
$$

ARZ056-057-069-251600-
SOUTHEAST ARKANSAS

CITY           SKY/WX    TMP DP  RH WIND       PRES   REMARKS
PINE BLUFF     SUNNY     39  33  79 S9        30.17R
STUTTGART      SUNNY     41  34  75 S14       30.17R
MONTICELLO     SUNNY     42  35  76 S6        30.17S

$$




USA.gov is the U.S. government's official web portal to all federal, state and local government web resources and services.